Plymouth, NH

2:07 AM EDT on April 30, 2017 (GMT -0400)
Plymouth

Weather History for K1P1 - May, 2012

Change the Weather History Date:

Thursday, May 3, 2012

  Actual Average (KLCI) Record (KLCI)
Temperature  
Mean Temperature 48 °F -  
Max Temperature 54 °F 61 °F 87 °F (2001)
Min Temperature 43 °F 39 °F 30 °F (1984)
Degree Days  
Heating Degree Days 16    
Moisture  
Dew Point 46 °F    
Average Humidity 91    
Maximum Humidity 99    
Minimum Humidity 81    
Precipitation  
Precipitation 0.04 in - - ()
Sea Level Pressure  
Sea Level Pressure 30.14 in    
Wind  
Wind Speed 3 mph (East)    
Max Wind Speed 6 mph    
Max Gust Speed -    
Visibility 8 miles    
Events Rain    
Averages and records for this station are not official NWS values.
T = Trace of Precipitation, MM = Missing Value Source: NWS Daily Summary

Daily Weather History Graph

Daily Weather History Graph

Search for Another Location

Airport or City:

Trip Planner

Search our weather history database for the weather conditions in past years. The results will help you decide how hot, cold, wet, or windy it might be!

Date:

Astronomy

May. 03, 2012 Rise Set
Actual Time 5:35 AM EDT 7:52 PM EDT
Civil Twilight 5:03 AM EDT 8:24 PM EDT
Nautical Twilight 4:24 AM EDT 9:04 PM EDT
Astronomical Twilight 3:40 AM EDT 9:48 PM EDT
Moon 5:09 PM EDT (5/3) 3:43 AM EDT (5/3)
Length of Visible Light 15h 20m
Length of Day
14h 16m
Waxing Gibbous, 91% of the Moon is Illuminated
May 3
Waxing Gibbous
May 5
Full
May 12
Last Quarter
May 20
New
May 28
First Quarter

Hourly Weather History & Observations

Time (EDT) Temp. Windchill Dew Point Humidity Pressure Visibility Wind Dir Wind Speed Gust Speed Precip Events Conditions
12:35 AM 45.5 °F 44.2 °F 44.8 °F 97% 30.19 in 7.0 mi East 3.5 mph - N/A   Overcast
12:55 AM 45.0 °F 42.6 °F 44.4 °F 98% 30.18 in 4.0 mi East 4.6 mph - N/A   Overcast
1:15 AM 44.8 °F 42.4 °F 44.2 °F 98% 30.18 in 3.0 mi East 4.6 mph - N/A   Overcast
1:35 AM 44.6 °F 43.1 °F 44.1 °F 98% 30.18 in 4.0 mi East 3.5 mph - N/A   Overcast
1:55 AM 44.6 °F 43.1 °F 43.9 °F 97% 30.16 in 5.0 mi East 3.5 mph - N/A   Overcast
2:15 AM 44.6 °F 43.1 °F 43.9 °F 97% 30.15 in 3.0 mi East 3.5 mph - N/A   Overcast
2:35 AM 44.1 °F 41.5 °F 43.7 °F 99% 30.15 in 3.0 mi East 4.6 mph - N/A Rain Light Rain
2:55 AM 43.9 °F 41.3 °F 43.3 °F 98% 30.15 in 3.0 mi East 4.6 mph - N/A Rain Rain
3:15 AM 43.9 °F 42.3 °F 43.3 °F 98% 30.15 in 5.0 mi East 3.5 mph - 0.01 in Rain Rain
3:35 AM 43.9 °F - 43.3 °F 98% 30.15 in 7.0 mi Calm Calm - 0.01 in   Drizzle
3:55 AM 43.9 °F 42.3 °F 43.3 °F 98% 30.15 in 7.0 mi East 3.5 mph - 0.02 in Rain Rain
4:15 AM 43.7 °F 42.1 °F 43.2 °F 98% 30.15 in 10.0 mi ENE 3.5 mph - 0.01 in Rain Light Rain
4:35 AM 43.7 °F 42.1 °F 43.2 °F 98% 30.15 in 10.0 mi ENE 3.5 mph - 0.02 in Rain Rain
4:55 AM 43.7 °F 42.1 °F 43.2 °F 98% 30.15 in 10.0 mi NE 3.5 mph - 0.02 in Rain Rain
5:15 AM 43.7 °F 41.1 °F 43.2 °F 98% 30.15 in 10.0 mi ENE 4.6 mph - N/A   Light Drizzle
5:35 AM 43.7 °F 42.1 °F 43.2 °F 98% 30.16 in 10.0 mi ENE 3.5 mph - N/A Rain Light Rain
5:55 AM 43.7 °F 41.1 °F 43.2 °F 98% 30.16 in 7.0 mi ENE 4.6 mph - N/A   Overcast
6:15 AM 43.7 °F 42.1 °F 43.2 °F 98% 30.17 in 5.0 mi ENE 3.5 mph - N/A   Drizzle
6:35 AM 43.7 °F - 43.3 °F 99% 30.17 in 5.0 mi Calm Calm - N/A   Light Drizzle
6:55 AM 43.7 °F - 43.3 °F 99% 30.17 in 5.0 mi Calm Calm - N/A   Light Drizzle
7:15 AM 43.9 °F - 43.7 °F 99% 30.17 in 4.0 mi Calm Calm - N/A   Overcast
7:35 AM 44.2 °F 42.7 °F 43.9 °F 99% 30.17 in 7.0 mi East 3.5 mph - N/A   Overcast
7:55 AM 44.6 °F - 44.1 °F 98% 30.18 in 3.0 mi Calm Calm - N/A   Overcast
8:15 AM 44.6 °F 43.1 °F 43.9 °F 97% 30.18 in 3.0 mi East 3.5 mph - N/A   Overcast
8:35 AM 44.6 °F 42.2 °F 43.9 °F 97% 30.18 in 2.0 mi East 4.6 mph - N/A   Overcast
8:55 AM 45.0 °F 42.6 °F 44.2 °F 97% 30.17 in 1.8 mi East 4.6 mph - N/A   Overcast
9:15 AM 45.1 °F 42.8 °F 44.6 °F 98% 30.17 in 2.0 mi East 4.6 mph - N/A   Overcast
9:35 AM 45.7 °F 43.4 °F 44.8 °F 97% 30.18 in 3.0 mi East 4.6 mph - N/A   Overcast
9:55 AM 46.0 °F 43.9 °F 44.4 °F 94% 30.18 in 4.0 mi East 4.6 mph - N/A   Overcast
10:15 AM 46.4 °F 45.2 °F 44.6 °F 93% 30.20 in 1.8 mi East 3.5 mph - N/A   Overcast
10:35 AM 46.8 °F - 45.3 °F 95% 30.19 in 1.8 mi ENE 4.6 mph - N/A   Overcast
10:55 AM 46.9 °F - 45.3 °F 94% 30.19 in 2.0 mi ENE 4.6 mph - N/A   Overcast
11:15 AM 47.3 °F - 45.5 °F 93% 30.19 in 3.0 mi East 4.6 mph - N/A   Overcast
11:35 AM 47.8 °F - 45.7 °F 92% 30.18 in 7.0 mi East 4.6 mph - N/A   Overcast
11:55 AM 48.4 °F - 45.5 °F 90% 30.17 in 10.0 mi ENE 5.8 mph - N/A   Overcast
12:15 PM 49.1 °F - 45.5 °F 87% 30.18 in 10.0 mi ENE 4.6 mph - N/A   Overcast
12:55 PM 49.8 °F - 45.5 °F 85% 30.16 in 10.0 mi ENE 3.5 mph - N/A   Overcast
1:15 PM 50.4 °F - 45.7 °F 84% 30.16 in 10.0 mi East 3.5 mph - N/A   Overcast
1:35 PM 50.7 °F - 46.0 °F 84% 30.15 in 10.0 mi NE 3.5 mph - N/A   Overcast
1:55 PM 51.3 °F - 46.6 °F 84% 30.15 in 10.0 mi East 3.5 mph - N/A   Overcast
2:15 PM 51.6 °F - 46.8 °F 83% 30.14 in 10.0 mi ENE 3.5 mph - N/A   Overcast
2:35 PM 51.8 °F - 46.6 °F 82% 30.13 in 10.0 mi East 4.6 mph - N/A   Overcast
2:55 PM 52.2 °F - 47.3 °F 83% 30.13 in 10.0 mi East 5.8 mph - N/A   Overcast
3:15 PM 52.7 °F - 47.3 °F 82% 30.13 in 10.0 mi East 4.6 mph - N/A   Overcast
3:35 PM 52.3 °F - 46.9 °F 82% 30.14 in 10.0 mi ESE 4.6 mph - N/A   Overcast
3:55 PM 52.3 °F - 47.1 °F 82% 30.13 in 10.0 mi ESE 3.5 mph - N/A   Overcast
4:15 PM 52.5 °F - 47.3 °F 82% 30.13 in 10.0 mi NE 3.5 mph - N/A   Overcast
4:35 PM 52.9 °F - 47.5 °F 82% 30.12 in 10.0 mi ESE 3.5 mph - N/A   Overcast
4:55 PM 53.2 °F - 48.0 °F 82% 30.12 in 10.0 mi Calm Calm - N/A   Overcast
5:15 PM 53.4 °F - 47.7 °F 81% 30.12 in 10.0 mi Calm Calm - N/A   Overcast
5:35 PM 53.2 °F - 48.0 °F 82% 30.12 in 10.0 mi East 3.5 mph - N/A   Overcast
5:55 PM 53.6 °F - 48.0 °F 81% 30.12 in 10.0 mi East 3.5 mph - N/A   Overcast
6:15 PM 54.0 °F - 48.4 °F 81% 30.11 in 10.0 mi East 4.6 mph - N/A   Overcast
6:35 PM 53.4 °F - 48.0 °F 82% 30.09 in 10.0 mi SE 3.5 mph - N/A   Overcast
6:55 PM 53.6 °F - 48.4 °F 82% 30.08 in 10.0 mi East 3.5 mph - N/A   Overcast
7:15 PM 53.1 °F - 48.2 °F 84% 30.09 in 10.0 mi Calm Calm - N/A   Overcast
7:35 PM 52.7 °F - 47.8 °F 84% 30.09 in 10.0 mi Calm Calm - N/A   Overcast
7:55 PM 52.5 °F - 48.0 °F 85% 30.11 in 10.0 mi Calm Calm - N/A   Overcast
8:15 PM 52.0 °F - 47.7 °F 85% 30.10 in 10.0 mi SSE 4.6 mph - N/A   Overcast
8:35 PM 51.3 °F - 47.8 °F 88% 30.10 in 10.0 mi South 4.6 mph - N/A   Overcast
8:55 PM 51.1 °F - 47.8 °F 89% 30.10 in 10.0 mi South 3.5 mph - N/A   Overcast
9:15 PM 50.9 °F - 48.2 °F 90% 30.11 in 10.0 mi South 3.5 mph - N/A   Overcast
9:35 PM 50.9 °F - 48.2 °F 90% 30.10 in 10.0 mi Calm Calm - N/A   Overcast
10:15 PM 50.4 °F - 48.6 °F 94% 30.09 in 10.0 mi Calm Calm - N/A   Overcast
10:35 PM 50.4 °F - 48.4 °F 93% 30.09 in 10.0 mi Calm Calm - N/A   Overcast
11:15 PM 50.2 °F - 48.7 °F 95% 30.09 in 10.0 mi Calm Calm - N/A   Overcast
11:35 PM 50.2 °F - 48.7 °F 95% 30.09 in 10.0 mi Calm Calm - N/A   Overcast
11:55 PM 50.2 °F - 48.9 °F 95% 30.09 in 10.0 mi Calm Calm - N/A   Overcast